Terminal Aerodrome Forecast
Issued by NWS

Home | Current Version | Previous Version | Graphics & Text | Print | Product List | Glossary On
Versions: 1 2 3 4 5 6 7 8 9 10 11 12 13 14
000
FTUS45 KGGW 271700
TAFSDY
TAF
KSDY 271722Z 2718/2818 27017G23KT P6SM VCSH BKN035
     FM272200 28022G31KT 6SM -SHRA SCT025 OVC035
     FM280500 30015KT P6SM SCT015 OVC025
      AMD LTD TO CLD VIS AND WIND=

USA.gov is the U.S. government's official web portal to all federal, state and local government web resources and services.